sat.trackr.live / text

‹ back to catalog

STARLINK-36476

NORAD 67314 · 2026-002K

PAYLOAD ACTIVE UNKNOWN

§ Identity

Operator
Country
US
Launch date
2026-01-04
Launch site
AFETR
Launch vehicle
Mass (kg)
RCS (m²)

Purposes: comms

External: N2YO · Heavens-Above · Gunter

§ Orbital elements

Epoch: 2026-09-19T04:51:50.402880Z

Period
94.27 min
Inclination
43.0002°
Eccentricity
0.0001186
Mean motion
15.27589542 rev/d
Perigee alt
482.2 km
Apogee alt
483.8 km
Semi-major
6,861.2 km
B*
3.6530e-4
RAAN
312.4560°
Arg perigee
206.1691°
Mean anomaly
153.9101°
Rev number
4,066

§ Raw data

STARLINK-364761 67314U 26002K   26262.20266670  .00009806  00000+0  36530-3 0  99902 67314  43.0002 312.4560 0001186 206.1691 153.9101 15.27589542 40668

JSON: /api/v1/satellites/67314 · /tle

For live sub-satellite position, see the globe view (requires WebGL).

§ Visibility from observer

Set your observer location to see the next 7 days of passes ≥ 10°. The values pass through the URL so the page stays shareable.

No JS? Fill the form by hand. The geolocation button needs JavaScript.